MST,Max TemperatureF,Mean TemperatureF,Min TemperatureF,Max Dew PointF,MeanDew PointF,Min DewpointF,Max Humidity, Mean Humidity, Min Humidity, Max Sea Level PressureIn, Mean Sea Level PressureIn, Min Sea Level PressureIn, Max VisibilityMiles, Mean VisibilityMiles, Min VisibilityMiles, Max Wind SpeedMPH, Mean Wind SpeedMPH, Max Gust SpeedMPH,PrecipitationIn, CloudCover, Events, WindDirDegrees
2012-3-1,73,61,49,38,35,31,61,43,24,30.09,30.00,29.88,10,10,10,20,9,25,0.00,0,,277
2012-3-2,68,58,48,37,8,-8,66,36,5,30.28,30.15,29.95,10,10,6,29,14,38,0.00,0,,356
2012-3-3,75,60,44,18,7,0,23,15,6,30.35,30.27,30.21,10,10,10,16,7,23,0.00,0,,337
2012-3-4,84,67,49,31,19,13,32,20,8,30.19,30.10,29.99,10,10,10,15,5,20,0.00,0,,344
2012-3-5,86,70,53,36,24,17,39,24,8,30.03,29.96,29.89,10,10,10,15,4,18,0.00,2,,32
2012-3-6,85,69,53,34,26,19,37,25,12,29.88,29.72,29.60,10,8,3,28,11,38,0.00,1,,233
2012-3-7,64,56,47,32,12,-4,48,28,7,30.12,29.97,29.73,10,10,10,25,11,30,0.00,1,,336
2012-3-8,76,59,41,27,18,11,45,28,10,30.28,30.21,30.12,10,10,10,17,6,23,0.00,0,,350
2012-3-9,82,68,53,35,22,12,36,23,9,30.25,30.14,30.01,10,10,10,15,7,18,0.00,0,,360
2012-3-10,80,66,52,34,24,15,41,25,9,30.04,29.98,29.91,10,10,10,17,5,20,0.00,0,,99
2012-3-11,83,67,50,28,21,9,38,22,6,29.99,29.92,29.86,10,10,10,14,6,18,0.00,0,,155
2012-3-12,82,67,52,28,21,12,35,22,8,29.99,29.93,29.87,10,10,10,15,5,16,0.00,0,,124
2012-3-13,83,67,51,43,29,15,46,28,9,29.99,29.94,29.88,10,10,8,12,3,17,0.00,1,,191
2012-3-14,82,66,50,43,31,22,55,33,11,30.05,29.99,29.95,10,10,9,13,2,17,0.00,1,,208
2012-3-15,85,69,53,37,33,27,50,31,12,30.06,29.98,29.91,10,10,9,9,2,12,0.00,0,,254
2012-3-16,86,71,55,42,37,30,51,32,13,29.94,29.87,29.78,10,10,10,13,4,15,0.00,1,,240
2012-3-17,76,65,54,48,41,33,60,44,27,29.79,29.72,29.62,10,10,8,25,8,30,0.01,5,Rain,279
2012-3-18,63,56,49,33,29,23,54,39,23,29.92,29.81,29.66,10,9,4,31,14,40,T,3,,284
2012-3-19,63,53,42,39,35,29,63,48,32,30.02,29.93,29.88,10,10,10,18,8,21,0.00,3,,219
2012-3-20,73,60,46,41,32,16,66,39,12,30.16,30.08,30.03,10,10,10,14,3,29,0.00,0,,346
2012-3-21,80,64,47,37,31,21,60,37,13,30.09,30.00,29.90,10,10,10,12,3,15,0.00,0,,248
2012-3-22,87,70,52,37,32,24,54,32,10,29.91,29.86,29.79,10,10,9,12,4,14,0.00,0,,185
2012-3-23,86,72,58,38,32,28,40,27,13,29.97,29.90,29.86,10,10,10,18,6,23,0.00,0,,166
2012-3-24,86,72,57,36,30,19,42,26,10,29.92,29.86,29.81,10,10,10,14,5,17,0.00,0,,172
2012-3-25,80,70,60,43,36,23,48,34,19,29.91,29.81,29.77,10,10,7,28,12,38,0.00,0,,179
2012-3-26,74,64,54,39,34,30,47,34,20,30.10,30.01,29.92,10,10,10,14,5,20,0.00,0,,318
2012-3-27,80,66,52,38,34,27,54,34,14,30.03,29.96,29.90,10,10,4,10,2,13,0.00,0,,259
2012-3-28,84,69,53,39,31,24,54,33,12,29.99,29.92,29.87,10,10,8,10,3,15,0.00,2,,276
2012-3-29,87,72,56,42,36,25,51,33,15,29.97,29.90,29.83,10,10,8,9,3,13,0.00,2,,264
2012-3-30,89,74,59,48,39,25,48,31,14,29.93,29.87,29.81,10,10,10,12,4,14,0.00,2,,205
2012-3-31,91,76,60,40,30,23,43,27,11,29.89,29.83,29.76,10,9,6,26,8,35,0.00,0,,258